Weather History for Birmingham, AL

Change the Weather History Date:

Thursday, December 12, 2013

  Actual Average Record
Temperature  
Mean Temperature 36 °F 47 °F  
Max Temperature 46 °F 56 °F 78 °F (1971)
Min Temperature 26 °F 37 °F 4 °F (1962)
Degree Days  
Heating Degree Days 29 19  
Month to date heating degree days 181 207  
Since 1 July heating degree days 709 665  
Moisture  
Dew Point 19 °F    
Average Humidity 54    
Maximum Humidity 85    
Minimum Humidity 23    
Precipitation  
Precipitation 0.00 in 0.15 in 2.06 in (1935)
Month to date precipitation 3.75 1.92  
Year to date precipitation 64.56 51.19  
Snow  
Snow 0.00 in 0.00 in - ()
Month to date snowfall 0.0 0.0  
Since 1 July snowfall 0.0 0.0  
Snow Depth 0.00 in    
Sea Level Pressure  
Sea Level Pressure 30.50 in    
Wind  
Wind Speed 6 mph (North)    
Max Wind Speed 15 mph    
Max Gust Speed 20 mph    
Visibility 10 miles    
Events      
T = Trace of Precipitation, MM = Missing Value Source: NWS Daily Summary

Daily Weather History Graph

Daily Weather History Graph

Search for Another Location

Airport:

Trip Planner

Search our weather history database for the weather conditions in past years. The results will help you decide how hot, cold, wet, or windy it might be!

Date:

Astronomy

Dec. 12, 2013 Rise Set
Actual Time 6:42 AM CST 4:39 PM CST
Civil Twilight 6:14 AM CST 5:07 PM CST
Nautical Twilight 5:43 AM CST 5:38 PM CST
Astronomical Twilight 5:13 AM CST 6:08 PM CST
Moon 1:37 PM CST (12/12) 2:14 AM CST (12/12)
Length of Visible Light 10h 52m
Length of Day
9h 57m
Waxing Gibbous, 80% of the Moon is Illuminated
Dec 12
Waxing Gibbous
Dec 17
Full
Dec 25
Last Quarter
Jan 1
New
Jan 7
First Quarter

Hourly Weather History & Observations

Time (CST) Temp. Windchill Dew Point Humidity Pressure Visibility Wind Dir Wind Speed Gust Speed Precip Events Conditions
12:53 AM 30.9 °F 26.2 °F 25.0 °F 79% 30.47 in 10.0 mi North 4.6 mph - N/A   Clear
1:53 AM 33.1 °F - 25.0 °F 72% 30.48 in 10.0 mi Calm Calm - N/A   Clear
2:53 AM 30.0 °F 25.2 °F 24.1 °F 79% 30.49 in 10.0 mi NNW 4.6 mph - N/A   Clear
3:53 AM 30.0 °F 23.2 °F 25.0 °F 82% 30.50 in 10.0 mi North 6.9 mph - N/A   Clear
4:53 AM 28.9 °F 21.9 °F 25.0 °F 85% 30.53 in 10.0 mi North 6.9 mph - N/A   Clear
5:53 AM 28.0 °F 20.8 °F 23.0 °F 81% 30.53 in 9.0 mi North 6.9 mph - N/A   Clear
6:53 AM 26.1 °F 16.8 °F 21.9 °F 84% 30.55 in 7.0 mi North 9.2 mph - N/A   Clear
7:53 AM 28.0 °F 18.1 °F 21.9 °F 78% 30.56 in 8.0 mi North 11.5 mph - N/A   Clear
8:53 AM 30.9 °F 23.5 °F 21.9 °F 69% 30.58 in 10.0 mi NNE 8.1 mph - N/A   Clear
9:53 AM 34.0 °F 25.0 °F 19.0 °F 54% 30.58 in 10.0 mi NNW 12.7 mph - N/A   Clear
10:53 AM 37.9 °F 30.5 °F 16.0 °F 41% 30.58 in 10.0 mi North 11.5 mph - N/A   Clear
11:53 AM 42.1 °F 35.2 °F 12.0 °F 29% 30.54 in 10.0 mi North 12.7 mph - N/A   Clear
12:53 PM 44.1 °F 40.1 °F 10.0 °F 25% 30.52 in 10.0 mi NNE 6.9 mph - N/A   Clear
1:53 PM 46.0 °F 40.6 °F 10.0 °F 23% 30.50 in 10.0 mi North 11.5 mph - N/A   Clear
2:53 PM 46.0 °F 41.4 °F 10.9 °F 24% 30.48 in 10.0 mi North 9.2 mph - N/A   Clear
3:53 PM 45.0 °F 41.2 °F 12.9 °F 27% 30.48 in 10.0 mi North 6.9 mph - N/A   Clear
4:53 PM 37.9 °F 34.4 °F 16.0 °F 41% 30.48 in 10.0 mi NNW 4.6 mph - N/A   Clear
5:53 PM 37.0 °F - 18.0 °F 46% 30.48 in 10.0 mi Calm Calm - N/A   Clear
6:53 PM 33.1 °F - 19.9 °F 59% 30.47 in 10.0 mi Calm Calm - N/A   Clear
7:53 PM 34.0 °F - 19.0 °F 54% 30.47 in 10.0 mi Calm Calm - N/A   Clear
8:53 PM 33.1 °F - 16.0 °F 50% 30.48 in 10.0 mi Calm Calm - N/A   Clear
9:53 PM 30.0 °F - 19.9 °F 66% 30.48 in 10.0 mi Calm Calm - N/A   Clear
10:53 PM 28.0 °F - 19.9 °F 72% 30.45 in 10.0 mi Calm Calm - N/A   Clear
11:53 PM 33.1 °F 30.0 °F 16.0 °F 50% 30.41 in 10.0 mi NE 3.5 mph - N/A   Scattered Clouds